XRC1012 DTTJ-DTTA

Flight info

Callsign XRC1012
Flight time 0h 35m
Altitude 24000
Route BISKO1B BISKO A411 TUC
Aircraft B738/M-SDE2E3FGHIRWXY/LB1

Departure

Time 2026-04-18 08:54
Airport Djerba Zarzis International Airport (DTTJ)

Arrival

Time 2026-04-18 09:29
Airport Tunis Carthage International Airport (DTTA)
Time Latitude Longitude Altitude Speed Heading
2026-04-18 08:37 33.87335 10.77921 28 ft 0 kts 179°
2026-04-18 08:46 33.87351 10.77920 30 ft 4 kts 171°
2026-04-18 08:46 33.87376 10.77911 31 ft 4 kts 144°
2026-04-18 08:46 33.87384 10.77905 26 ft 4 kts 128°
2026-04-18 08:46 33.87390 10.77894 30 ft 4 kts 101°
2026-04-18 08:47 33.87391 10.77885 30 ft 1 kts 88°
2026-04-18 08:50 33.87392 10.77928 27 ft 12 kts 87°
2026-04-18 08:50 33.87395 10.78053 26 ft 17 kts 88°
2026-04-18 08:50 33.87398 10.78199 29 ft 17 kts 92°
2026-04-18 08:50 33.87395 10.78340 30 ft 17 kts 87°
2026-04-18 08:51 33.87401 10.78476 25 ft 17 kts 86°
2026-04-18 08:51 33.87453 10.78594 20 ft 18 kts 15°
2026-04-18 08:51 33.87558 10.78646 20 ft 17 kts 65°
2026-04-18 08:51 33.87572 10.78799 16 ft 21 kts 88°
2026-04-18 08:52 33.87577 10.78990 18 ft 23 kts 89°
2026-04-18 08:52 33.87582 10.79178 21 ft 22 kts 88°
2026-04-18 08:52 33.87581 10.79325 20 ft 14 kts 99°
2026-04-18 08:52 33.87602 10.79348 23 ft 4 kts 258°
2026-04-18 08:53 33.87588 10.79304 20 ft 13 kts 251°
2026-04-18 08:53 33.87579 10.79130 21 ft 46 kts 268°
2026-04-18 08:53 33.87562 10.78433 19 ft 118 kts 268°
2026-04-18 08:53 33.87531 10.77206 49 ft 171 kts 268°
2026-04-18 08:54 33.87483 10.75797 878 ft 166 kts 268°
2026-04-18 08:54 33.87754 10.74464 1668 ft 171 kts 306°
2026-04-18 08:54 33.88635 10.73503 2471 ft 173 kts 328°
2026-04-18 08:54 33.89762 10.73018 3277 ft 173 kts 351°
2026-04-18 08:55 33.90955 10.73106 4083 ft 174 kts 16°
2026-04-18 08:55 33.92074 10.73689 4833 ft 176 kts 22°
2026-04-18 08:55 33.93225 10.74335 5372 ft 195 kts 22°
2026-04-18 08:55 33.94538 10.75075 5638 ft 222 kts 23°
2026-04-18 08:56 33.96038 10.75872 5893 ft 249 kts 14°
2026-04-18 08:56 33.97794 10.76067 6487 ft 258 kts 358°
2026-04-18 08:56 33.99599 10.75927 7287 ft 261 kts 354°
2026-04-18 08:56 34.01432 10.75722 8012 ft 267 kts 354°
2026-04-18 08:57 34.05172 10.75302 9547 ft 275 kts 354°
2026-04-18 08:57 34.07091 10.75090 10328 ft 278 kts 355°
2026-04-18 08:57 34.09081 10.74879 10665 ft 299 kts 355°
2026-04-18 08:58 34.11240 10.74651 10864 ft 323 kts 355°
2026-04-18 08:58 34.13546 10.74412 11182 ft 339 kts 355°
2026-04-18 08:58 34.15921 10.74168 11807 ft 345 kts 355°
2026-04-18 08:58 34.18326 10.73922 12537 ft 348 kts 355°
2026-04-18 08:59 34.20748 10.73674 13281 ft 351 kts 355°
2026-04-18 08:59 34.23192 10.73425 14001 ft 355 kts 355°
2026-04-18 08:59 34.25665 10.73172 14717 ft 359 kts 355°
2026-04-18 08:59 34.28165 10.72917 15442 ft 362 kts 355°
2026-04-18 09:00 34.30695 10.72673 16158 ft 366 kts 356°
2026-04-18 09:00 34.33243 10.72478 16860 ft 369 kts 357°
2026-04-18 09:00 34.35821 10.72287 17529 ft 373 kts 356°
2026-04-18 09:00 34.38425 10.72068 18161 ft 377 kts 356°
2026-04-18 09:01 34.41056 10.71834 18789 ft 381 kts 356°
2026-04-18 09:01 34.43712 10.71595 19435 ft 384 kts 356°
2026-04-18 09:01 34.46386 10.71355 20060 ft 387 kts 356°
2026-04-18 09:01 34.49077 10.71115 20651 ft 390 kts 356°
2026-04-18 09:02 34.51792 10.70875 21222 ft 393 kts 356°
2026-04-18 09:02 34.54529 10.70635 21760 ft 396 kts 356°
2026-04-18 09:02 34.57286 10.70394 22309 ft 399 kts 356°
2026-04-18 09:02 34.60061 10.70151 22807 ft 402 kts 356°
2026-04-18 09:03 34.62850 10.69907 23427 ft 401 kts 356°
2026-04-18 09:03 34.65629 10.69663 23998 ft 400 kts 356°
2026-04-18 09:03 34.68399 10.69420 24078 ft 399 kts 356°
2026-04-18 09:03 34.71160 10.69177 24096 ft 399 kts 356°
2026-04-18 09:04 34.73930 10.68934 24105 ft 398 kts 356°
2026-04-18 09:04 34.76692 10.68689 24106 ft 398 kts 356°
2026-04-18 09:04 34.79462 10.68445 24108 ft 399 kts 356°
2026-04-18 09:04 34.82227 10.68202 24107 ft 399 kts 356°
2026-04-18 09:05 34.84999 10.67958 24104 ft 399 kts 356°
2026-04-18 09:05 34.87772 10.67714 24102 ft 399 kts 356°
2026-04-18 09:05 34.90541 10.67470 24104 ft 399 kts 356°
2026-04-18 09:05 34.93315 10.67225 24105 ft 399 kts 356°
2026-04-18 09:06 34.96081 10.66981 24107 ft 399 kts 356°
2026-04-18 09:06 34.98848 10.66736 24113 ft 399 kts 356°
2026-04-18 09:06 35.01608 10.66492 24133 ft 408 kts 356°
2026-04-18 09:06 35.04485 10.66238 24115 ft 419 kts 357°
2026-04-18 09:07 35.07431 10.65977 24122 ft 429 kts 356°
2026-04-18 09:07 35.10437 10.65711 24120 ft 437 kts 356°
2026-04-18 09:07 35.13493 10.65439 24124 ft 445 kts 356°
2026-04-18 09:07 35.16603 10.65162 24128 ft 450 kts 356°
2026-04-18 09:08 35.19722 10.64884 24116 ft 449 kts 356°
2026-04-18 09:08 35.22828 10.64607 24113 ft 447 kts 356°
2026-04-18 09:08 35.25931 10.64330 24115 ft 446 kts 356°
2026-04-18 09:08 35.29021 10.64055 24116 ft 445 kts 356°
2026-04-18 09:09 35.32111 10.63780 24121 ft 445 kts 357°
2026-04-18 09:09 35.35197 10.63504 24124 ft 445 kts 357°
2026-04-18 09:09 35.38287 10.63227 24129 ft 445 kts 357°
2026-04-18 09:09 35.41378 10.62951 24130 ft 445 kts 357°
2026-04-18 09:10 35.44464 10.62675 24132 ft 445 kts 357°
2026-04-18 09:10 35.47561 10.62398 24035 ft 447 kts 357°
2026-04-18 09:10 35.50669 10.62120 23625 ft 446 kts 356°
2026-04-18 09:10 35.53750 10.61842 23100 ft 442 kts 356°
2026-04-18 09:11 35.56800 10.61568 22575 ft 438 kts 356°
2026-04-18 09:11 35.59840 10.61294 22035 ft 436 kts 356°
2026-04-18 09:11 35.62853 10.61023 21477 ft 434 kts 356°
2026-04-18 09:11 35.65859 10.60753 20872 ft 432 kts 356°
2026-04-18 09:12 35.68842 10.60484 20328 ft 428 kts 356°
2026-04-18 09:12 35.71805 10.60217 19792 ft 425 kts 356°
2026-04-18 09:12 35.74743 10.59953 19265 ft 421 kts 356°
2026-04-18 09:12 35.77649 10.59691 18741 ft 418 kts 356°
2026-04-18 09:13 35.80534 10.59430 18221 ft 414 kts 356°
2026-04-18 09:13 35.83397 10.59171 17710 ft 410 kts 356°
2026-04-18 09:13 35.86229 10.58915 17205 ft 406 kts 356°
2026-04-18 09:13 35.89036 10.58662 16690 ft 404 kts 356°
2026-04-18 09:14 35.91826 10.58411 16179 ft 401 kts 356°
2026-04-18 09:14 35.94601 10.58159 15693 ft 398 kts 356°
2026-04-18 09:14 35.97353 10.57909 15186 ft 395 kts 356°
2026-04-18 09:14 36.00051 10.57665 14690 ft 393 kts 356°
2026-04-18 09:15 36.02804 10.57415 14196 ft 391 kts 356°
2026-04-18 09:15 36.05509 10.57169 13706 ft 388 kts 356°
2026-04-18 09:15 36.08196 10.56925 13235 ft 386 kts 356°
2026-04-18 09:15 36.10830 10.56685 12744 ft 384 kts 356°
2026-04-18 09:16 36.13519 10.56439 12250 ft 381 kts 356°
2026-04-18 09:16 36.16156 10.56198 11773 ft 379 kts 356°
2026-04-18 09:16 36.18776 10.55959 11312 ft 375 kts 356°
2026-04-18 09:16 36.21382 10.55723 11147 ft 376 kts 356°
2026-04-18 09:17 36.23983 10.55486 11114 ft 374 kts 356°
2026-04-18 09:17 36.26548 10.55252 11126 ft 375 kts 356°
2026-04-18 09:17 36.29147 10.55014 11111 ft 375 kts 356°
2026-04-18 09:17 36.31690 10.54781 11085 ft 353 kts 356°
2026-04-18 09:18 36.34044 10.54566 11097 ft 328 kts 356°
2026-04-18 09:18 36.36260 10.54363 11062 ft 312 kts 356°
2026-04-18 09:18 36.38383 10.54168 10977 ft 299 kts 356°
2026-04-18 09:18 36.40402 10.53982 10859 ft 282 kts 356°
2026-04-18 09:19 36.42302 10.53807 10660 ft 268 kts 356°
2026-04-18 09:19 36.44149 10.53638 10215 ft 265 kts 356°
2026-04-18 09:19 36.45980 10.53471 9753 ft 264 kts 356°
2026-04-18 09:19 36.47802 10.53303 9284 ft 262 kts 356°
2026-04-18 09:20 36.49621 10.53133 8804 ft 262 kts 356°
2026-04-18 09:20 36.51468 10.52963 8019 ft 272 kts 356°
2026-04-18 09:20 36.53382 10.52787 7234 ft 279 kts 356°
2026-04-18 09:20 36.55354 10.52606 6344 ft 289 kts 356°
2026-04-18 09:21 36.57369 10.52422 5596 ft 291 kts 356°
2026-04-18 09:21 36.59385 10.52239 5044 ft 285 kts 355°
2026-04-18 09:21 36.61307 10.52061 4800 ft 270 kts 355°
2026-04-18 09:21 36.63135 10.51893 4534 ft 257 kts 355°
2026-04-18 09:22 36.64874 10.51729 4264 ft 246 kts 355°
2026-04-18 09:22 36.66553 10.51574 4066 ft 240 kts 355°
2026-04-18 09:22 36.68208 10.51421 4027 ft 237 kts 355°
2026-04-18 09:22 36.69818 10.51266 3979 ft 225 kts 355°
2026-04-18 09:23 36.71331 10.51113 3985 ft 209 kts 351°
2026-04-18 09:23 36.72637 10.50555 3977 ft 194 kts 338°
2026-04-18 09:23 36.73838 10.49928 3985 ft 184 kts 339°
2026-04-18 09:23 36.75019 10.49313 3970 ft 184 kts 338°
2026-04-18 09:24 36.76160 10.48628 3970 ft 184 kts 322°
2026-04-18 09:24 36.76854 10.47264 3847 ft 192 kts 297°
2026-04-18 09:24 36.77420 10.45795 3586 ft 183 kts 300°
2026-04-18 09:24 36.77937 10.44381 3345 ft 174 kts 297°
2026-04-18 09:25 36.78402 10.43017 3125 ft 167 kts 297°
2026-04-18 09:25 36.78836 10.41710 2920 ft 157 kts 297°
2026-04-18 09:25 36.79240 10.40485 2729 ft 146 kts 296°
2026-04-18 09:25 36.79624 10.39323 2519 ft 144 kts 295°
2026-04-18 09:26 36.80000 10.38182 2326 ft 141 kts 295°
2026-04-18 09:26 36.80370 10.37060 2145 ft 140 kts 294°
2026-04-18 09:26 36.80741 10.35939 1966 ft 140 kts 294°
2026-04-18 09:26 36.81111 10.34813 1775 ft 140 kts 293°
2026-04-18 09:27 36.81479 10.33689 1588 ft 141 kts 292°
2026-04-18 09:27 36.81852 10.32546 1443 ft 143 kts 293°
2026-04-18 09:27 36.82206 10.31499 1220 ft 144 kts 291°
2026-04-18 09:27 36.82564 10.30402 1057 ft 142 kts 291°
2026-04-18 09:28 36.82941 10.29254 850 ft 140 kts 291°
2026-04-18 09:28 36.83314 10.28137 659 ft 141 kts 292°
2026-04-18 09:28 36.83687 10.27022 488 ft 139 kts 291°
2026-04-18 09:28 36.84054 10.25911 295 ft 136 kts 290°
2026-04-18 09:29 36.84415 10.24789 125 ft 143 kts 292°
2026-04-18 09:29 36.84796 10.23651 31 ft 134 kts 292°
2026-04-18 09:29 36.85070 10.22843 32 ft 33 kts 292°
2026-04-18 09:29 36.85153 10.22583 35 ft 26 kts 291°
2026-04-18 09:30 36.85116 10.22429 32 ft 21 kts 203°
2026-04-18 09:30 36.84971 10.22389 30 ft 21 kts 189°
2026-04-18 09:30 36.84831 10.22347 29 ft 20 kts 193°
2026-04-18 09:30 36.84695 10.22310 29 ft 20 kts 192°
2026-04-18 09:31 36.84562 10.22274 29 ft 19 kts 193°
2026-04-18 09:31 36.84435 10.22241 29 ft 19 kts 193°
2026-04-18 09:31 36.84305 10.22205 30 ft 19 kts 192°
2026-04-18 09:31 36.84182 10.22172 30 ft 18 kts 192°
2026-04-18 09:32 36.84061 10.22139 30 ft 17 kts 192°
2026-04-18 09:32 36.83945 10.22110 29 ft 17 kts 189°
2026-04-18 09:32 36.83884 10.22012 29 ft 16 kts 284°
2026-04-18 09:32 36.83953 10.21977 29 ft 10 kts
2026-04-18 09:33 36.83985 10.21981 29 ft 0 kts